Back to catalog

STARLINK-5201

AliveCommunicationsVLEO
NORAD 54076·PAYLOAD·🇺🇸 United States

Launched Oct 20, 2022 from Cape Canaveral Space Force Station

Loading…

Next Passes (next 24 hours)

TLE

FreshSource: CelesTrak SupGP

Epoch: Sep 14, 2026, 13:20 UTC

1 54076C 22136AB  26257.55604167 -.00027223  00000+0 -77909-3 0  2571
2 54076  53.1579 207.3396 0001206  91.7302 300.9126 15.35403647    15

Track STARLINK-5201 in real time with AllMySat

Download on the App Store